K9MWM-1 Weather Reports


Display with metric or nautical units.
time (UTC)temp
F
wind
direction
speed
MPH
gust
MPH
rain 1hr
in
rain 24hr
in
rain mn
in
humidity
%
barometer
mb
20211127112259 22 337 0.0 2.0 0.00 0.00 0.00
20211127111746 22 337 0.0 0.0 0.00 0.00 0.00
20211127111233 22 51 0.0 0.0 0.00 0.00 0.00
20211127110721 22 274 0.0 0.0 0.00 0.00 0.00
20211127110208 22 337 0.0 2.0 0.00 0.00 0.00
20211127105655 22 337 0.0 0.0 0.00 0.00 0.00
20211127104629 23 337 0.0 0.0 0.00 0.00 0.00
20211127104116 23 113 0.0 0.0 0.00 0.00 0.00
20211127103603 23 337 0.0 0.0 0.00 0.00 0.00
20211127102538 23 22 2.0 4.0 0.00 0.00 0.00
20211127101512 23 315 1.0 2.0 0.00 0.00 0.00
20211127100959 23 317 0.0 0.0 0.00 0.00 0.00
20211127100446 23 112 0.0 1.0 0.00 0.00 0.00
20211127095933 23 337 2.0 3.0 0.00 0.00 0.00
20211127095420 23 2 1.0 3.0 0.00 0.00 0.00
20211127094908 23 337 0.0 1.0 0.00 0.00 0.00
20211127094355 23 213 0.0 3.0 0.00 0.00 0.00
20211127093329 23 109 0.0 0.0 0.00 0.00 0.00
20211127092816 23 337 0.0 0.0 0.00 0.00 0.00
20211127091751 23 337 0.0 1.0 0.00 0.00 0.00
20211127090725 23 326 0.0 0.0 0.00 0.00 0.00
20211127090214 23 337 0.0 0.0 0.00 0.00 0.00
20211127085659 23 0 0.0 0.0 0.00 0.00 0.00
20211127084633 23 104 0.0 1.0 0.00 0.00 0.00
20211127084121 23 337 0.0 2.0 0.00 0.00 0.00
20211127083608 23 337 0.0 0.0 0.00 0.00 0.00
20211127083055 23 337 0.0 0.0 0.00 0.00 0.00
20211127082030 23 120 0.0 0.0 0.00 0.00 0.00
20211127081517 23 337 0.0 0.0 0.00 0.00 0.00
20211127081004 23 90 0.0 0.0 0.00 0.00 0.00
20211127080538 24 45 0.0 0.0 0.00 0.00 0.00
20211127080451 24 45 0.0 0.0 0.00 0.00 0.00
20211127075938 24 337 0.0 0.0 0.00 0.00 0.00
20211127075425 24 0 0.0 0.0 0.00 0.00 0.00
20211127074912 24 337 0.0 1.0 0.00 0.00 0.00
20211127074359 24 337 0.0 0.0 0.00 0.00 0.00
20211127073847 24 337 0.0 1.0 0.00 0.00 0.00
20211127072821 24 337 0.0 0.0 0.00 0.00 0.00
20211127072308 24 337 0.0 0.0 0.00 0.00 0.00
20211127071755 25 337 0.0 0.0 0.00 0.00 0.00
20211127070730 25 337 0.0 1.0 0.00 0.00 0.00
20211127070217 25 337 0.0 1.0 0.00 0.00 0.00
20211127065704 25 337 0.0 1.0 0.00 0.00 0.00
20211127064638 24 270 0.0 0.0 0.00 0.00 0.00
20211127064125 24 337 0.0 0.0 0.00 0.00 0.00
20211127063612 24 337 0.0 0.0 0.00 0.00 0.00
20211127061521 25 40 0.0 0.0 0.00 0.00 0.00
20211127060456 25 337 0.0 1.0 0.00 0.00 0.00
20211127055430 25 100 0.0 1.0 0.00 0.00 0.00
20211127054404 26 28 0.0 0.0 0.00 0.00 0.00
20211127053851 26 295 0.0 0.0 0.00 0.00 0.00
20211127052826 27 337 0.0 0.0 0.00 0.00 0.00
20211127052313 27 45 0.0 0.0 0.00 0.00 0.00
20211127051800 27 337 0.0 1.0 0.00 0.00 0.00
20211127051248 27 337 0.0 1.0 0.00 0.00 0.00
20211127050735 27 95 0.0 1.0 0.00 0.00 0.00
20211127050221 27 337 0.0 1.0 0.00 0.00 0.00
20211127045709 27 337 0.0 0.0 0.00 0.00 0.00
20211127045156 27 0 0.0 0.0 0.00 0.00 0.00
20211127044643 27 337 0.0 0.0 0.00 0.00 0.00
20211127044130 27 52 0.0 1.0 0.00 0.00 0.00
20211127043617 27 337 0.0 1.0 0.00 0.00 0.00
20211127043105 28 97 0.0 2.0 0.00 0.00 0.00
20211127042039 28 337 0.0 0.0 0.00 0.00 0.00
20211127041526 29 337 0.0 2.0 0.00 0.00 0.00
20211127041013 28 337 0.0 0.0 0.00 0.00 0.00
20211127040500 29 337 0.0 0.0 0.00 0.00 0.00
20211127035947 29 99 0.0 0.0 0.00 0.00 0.00
20211127035435 30 337 0.0 1.0 0.00 0.00 0.00
20211127034922 30 337 1.0 2.0 0.00 0.00 0.00
20211127034408 30 270 0.0 0.0 0.00 0.00 0.00
20211127033856 30 337 0.0 1.0 0.00 0.00 0.00
20211127033343 30 337 0.0 0.0 0.00 0.00 0.00
20211127032831 30 337 0.0 0.0 0.00 0.00 0.00
20211127032317 31 22 0.0 0.0 0.00 0.00 0.00
20211127031805 31 337 0.0 1.0 0.00 0.00 0.00
20211127031252 31 337 0.0 1.0 0.00 0.00 0.00
20211127030739 31 337 0.0 0.0 0.00 0.00 0.00
20211127030226 31 337 0.0 0.0 0.00 0.00 0.00
20211127025200 32 337 0.0 0.0 0.00 0.00 0.00
20211127024648 32 337 0.0 1.0 0.00 0.00 0.00
20211127024134 32 337 0.0 1.0 0.00 0.00 0.00
20211127023622 32 3 0.0 0.0 0.00 0.00 0.00
20211127023109 32 337 0.0 0.0 0.00 0.00 0.00
20211127022556 33 315 0.0 0.0 0.00 0.00 0.00
20211127022043 33 337 0.0 0.0 0.00 0.00 0.00
20211127021530 33 337 0.0 0.0 0.00 0.00 0.00
20211127021017 34 90 0.0 0.0 0.00 0.00 0.00
20211127015952 34 90 0.0 0.0 0.00 0.00 0.00
20211127015439 35 90 0.0 0.0 0.00 0.00 0.00
20211127014926 35 90 0.0 0.0 0.00 0.00 0.00
20211127013348 37 90 0.0 1.0 0.00 0.00 0.00
20211127012835 37 90 0.0 1.0 0.00 0.00 0.00
20211127012322 38 104 0.0 2.0 0.00 0.00 0.00
20211127011809 38 271 0.0 1.0 0.00 0.00 0.00
20211127011256 39 337 0.0 2.0 0.00 0.00 0.00
20211127010743 40 112 0.0 2.0 0.00 0.00 0.00
20211127010231 40 157 1.0 3.0 0.00 0.00 0.00
20211127005718 40 337 1.0 2.0 0.00 0.00 0.00
20211127004652 40 337 1.0 2.0 0.00 0.00 0.00
20211127004139 40 337 1.0 2.0 0.00 0.00 0.00
20211127003626 40 337 0.0 2.0 0.00 0.00 0.00
20211127003113 40 315 0.0 1.0 0.00 0.00 0.00
20211127002601 40 337 1.0 2.0 0.00 0.00 0.00
20211127002048 40 45 0.0 2.0 0.00 0.00 0.00
20211127001535 40 180 0.0 2.0 0.00 0.00 0.00
20211127001022 40 337 0.0 2.0 0.00 0.00 0.00
20211127000509 40 22 0.0 2.0 0.00 0.00 0.00
20211126235956 41 337 1.0 3.0 0.00 0.00 0.00
20211126235444 42 247 0.0 2.0 0.00 0.00 0.00
20211126234418 43 120 0.0 2.0 0.00 0.00 0.00
20211126233906 44 27 0.0 2.0 0.00 0.00 0.00
20211126233352 44 38 0.0 3.0 0.00 0.00 0.00
20211126232839 44 47 0.0 0.0 0.00 0.00 0.00
20211126232326 45 103 0.0 2.0 0.00 0.00 0.00
20211126231815 46 217 0.0 2.0 0.00 0.00 0.00
20211126231301 47 61 1.0 2.0 0.00 0.00 0.00
20211126230748 47 333 0.0 1.0 0.00 0.00 0.00
20211126230237 49 349 1.0 2.0 0.00 0.00 0.00
20211126225209 50 333 1.0 3.0 0.00 0.00 0.00
20211126224657 52 329 2.0 3.0 0.00 0.00 0.00
20211126224144 52 326 2.0 4.0 0.00 0.00 0.00
20211126223631 52 334 0.0 3.0 0.00 0.00 0.00
20211126223118 52 336 4.0 6.0 0.00 0.00 0.00
20211126222052 53 339 0.0 3.0 0.00 0.00 0.00
20211126221540 54 333 1.0 3.0 0.00 0.00 0.00
20211126221027 55 319 3.0 5.0 0.00 0.00 0.00
20211126220514 57 326 1.0 5.0 0.00 0.00 0.00
20211126220001 58 202 2.0 3.0 0.00 0.00 0.00
20211126215448 58 213 0.0 2.0 0.00 0.00 0.00
20211126213357 58 168 0.0 2.0 0.00 0.00 0.00
20211126212844 59 270 1.0 3.0 0.00 0.00 0.00
20211126212331 58 176 1.0 2.0 0.00 0.00 0.00
20211126211818 58 301 0.0 3.0 0.00 0.00 0.00
20211126211305 58 278 0.0 3.0 0.00 0.00 0.00
20211126205214 57 279 0.0 2.0 0.00 0.00 0.00
20211126203636 56 292 1.0 3.0 0.00 0.00 0.00
20211126201544 56 292 2.0 5.0 0.00 0.00 0.00
20211126201031 55 256 1.0 4.0 0.00 0.00 0.00
20211126200007 55 243 3.0 5.0 0.00 0.00 0.00
20211126194940 54 253 2.0 4.0 0.00 0.00 0.00
20211126193916 53 220 1.0 4.0 0.00 0.00 0.00
20211126193401 52 330 2.0 5.0 0.00 0.00 0.00
20211126191823 51 221 1.0 5.0 0.00 0.00 0.00
20211126191310 50 165 2.0 6.0 0.00 0.00 0.00
20211126190757 50 233 2.0 5.0 0.00 0.00 0.00
20211126190244 50 216 2.0 5.0 0.00 0.00 0.00
20211126185731 50 202 2.0 5.0 0.00 0.00 0.00
20211126185219 49 194 2.0 5.0 0.00 0.00 0.00
20211126184706 49 150 2.0 6.0 0.00 0.00 0.00
20211126183640 49 145 1.0 4.0 0.00 0.00 0.00
20211126183127 49 207 4.0 6.0 0.00 0.00 0.00
20211126182614 49 160 5.0 6.0 0.00 0.00 0.00
20211126181549 47 337 1.0 3.0 0.00 0.00 0.00
20211126175457 45 136 2.0 5.0 0.00 0.00 0.00
20211126174944 45 139 3.0 5.0 0.00 0.00 0.00
20211126174432 45 247 0.0 4.0 0.00 0.00 0.00
20211126173406 43 155 0.0 4.0 0.00 0.00 0.00
20211126172340 43 123 5.0 6.0 0.00 0.00 0.00
20211126171827 42 142 2.0 6.0 0.00 0.00 0.00
20211126171314 42 337 0.0 4.0 0.00 0.00 0.00
20211126170249 41 111 2.0 4.0 0.00 0.00 0.00
20211126165737 40 337 1.0 3.0 0.00 0.00 0.00
20211126164710 38 337 0.0 2.0 0.00 0.00 0.00
20211126164157 37 150 2.0 6.0 0.00 0.00 0.00
20211126163133 35 247 2.0 6.0 0.00 0.00 0.00
20211126162620 34 274 2.0 3.0 0.00 0.00 0.00
20211126162107 34 150 2.0 5.0 0.00 0.00 0.00
20211126161554 33 148 1.0 4.0 0.00 0.00 0.00
20211126160016 32 337 0.0 2.0 0.00 0.00 0.00
20211126155503 31 168 1.0 3.0 0.00 0.00 0.00
20211126154437 29 152 4.0 6.0 0.00 0.00 0.00
20211126153925 27 147 0.0 2.0 0.00 0.00 0.00
20211126153411 25 142 1.0 3.0 0.00 0.00 0.00
20211126152859 23 166 0.0 4.0 0.00 0.00 0.00
20211126150255 18 184 0.0 2.0 0.00 0.00 0.00
20211126145741 18 324 1.0 2.0 0.00 0.00 0.00
20211126145228 18 297 0.0 2.0 0.00 0.00 0.00
20211126144203 17 127 0.0 3.0 0.00 0.00 0.00
20211126143650 17 151 0.0 2.0 0.00 0.00 0.00
20211126143136 17 157 0.0 2.0 0.00 0.00 0.00
20211126142624 17 165 0.0 4.0 0.00 0.00 0.00
20211126141603 17 25 0.0 0.0 0.00 0.00 0.00
20211126140020 17 337 0.0 1.0 0.00 0.00 0.00
20211126135506 17 337 0.0 1.0 0.00 0.00 0.00
20211126133417 17 337 0.0 0.0 0.00 0.00 0.00
20211126132351 18 325 0.0 1.0 0.00 0.00 0.00
20211126130259 17 100 0.0 3.0 0.00 0.00 0.00
20211126125234 17 337 0.0 0.0 0.00 0.00 0.00
20211126124720 17 332 0.0 2.0 0.00 0.00 0.00
20211126124208 17 315 0.0 1.0 0.00 0.00 0.00
20211126122628 18 110 0.0 0.0 0.00 0.00 0.00
20211126122115 18 90 0.0 1.0 0.00 0.00 0.00
20211126121603 18 191 0.0 0.0 0.00 0.00 0.00
20211126121050 18 173 0.0 3.0 0.00 0.00 0.00
20211126120537 18 110 0.0 3.0 0.00 0.00 0.00
20211126120024 18 337 0.0 0.0 0.00 0.00 0.00
20211126115511 18 115 0.0 1.0 0.00 0.00 0.00
20211126114958 19 105 0.0 1.0 0.00 0.00 0.00
20211126114446 19 106 0.0 2.0 0.00 0.00 0.00
20211126113932 19 126 1.0 4.0 0.00 0.00 0.00
20211126113420 19 122 2.0 4.0 0.00 0.00 0.00
20211126112907 20 150 1.0 2.0 0.00 0.00 0.00